Location: Aucun
(42.9667°N, 0.1667°W)
Time: 15:38:01
(UTC+00:00)

Cosmos 292 Rocket - Pass Details

Date: 17 February 2020
Orbit: 674 x 693 km, 74.1° (Epoch: 27 March)

Event Time Altitude Azimuth Distance (km) Brightness Sun altitude
Exits shadow 04:43:29 53° 349° (N) 833 4.1 -24.9°
Maximum altitude 04:44:36 83° 70° (ENE) 685 3.7 -24.7°
Drops below altitude 10° 04:49:20 10° 159° (SSE) 2,101 6.4 -23.8°
Sets 04:51:37 0° 160° (SSE) 3,012 7.3 -23.4°
